timestamp,surface_pressure_avg,surface_temp_avg,battery_voltage,lat,long
2018-05-29 00:00:00+00:00,336.1563,5.3,13.29,47.84626,-54.09684
2018-05-29 00:10:00+00:00,331.8146,5.3,13.21,47.84626,-54.09684
2018-05-29 00:20:00+00:00,327.8746,5.3,13.21,47.84626,-54.09684
2018-05-29 00:30:00+00:00,323.5746,5.3,13.21,47.84626,-54.09684
2018-05-29 00:40:00+00:00,320.2546,5.3,13.21,47.84626,-54.09684
2018-05-29 00:50:00+00:00,317.7663,5.3,13.21,47.84626,-54.09684
2018-05-29 01:00:00+00:00,313.8696,5.3,13.13,47.84626,-54.09684
2018-05-29 01:10:00+00:00,308.9696,5.3,13.05,47.84626,-54.09684
2018-05-29 01:20:00+00:00,305.1946,5.3,13.05,47.84626,-54.09684
2018-05-29 01:30:00+00:00,300.638,5.32,13.05,47.84626,-54.09684
2018-05-29 01:40:00+00:00,290.6564,5.38,13.05,47.84626,-54.09684
2018-05-29 01:50:00+00:00,279.6581,5.36,13.13,47.84626,-54.09684
2018-05-29 02:00:00+00:00,273.8181,5.38,13.05,47.84626,-54.09684
2018-05-29 02:10:00+00:00,268.5897,5.39,12.97,47.84626,-54.09684
2018-05-29 02:20:00+00:00,260.4131,5.39,13.05,47.84626,-54.09684
2018-05-29 02:30:00+00:00,252.9047,5.39,13.05,47.84626,-54.09684
2018-05-29 02:40:00+00:00,246.4797,5.4,13.05,47.84626,-54.09684
2018-05-29 02:50:00+00:00,238.6531,5.4,13.05,47.84626,-54.09684
2018-05-29 03:00:00+00:00,230.0681,5.4,12.97,47.84626,-54.09684
2018-05-29 03:10:00+00:00,221.2632,5.4,12.97,47.84626,-54.09684
2018-05-29 03:20:00+00:00,213.1248,5.4,12.97,47.84626,-54.09684
2018-05-29 03:30:00+00:00,206.7198,5.4,12.97,47.84626,-54.09684
2018-05-29 03:40:00+00:00,200.0165,5.4,13.05,47.84626,-54.09684
2018-05-29 03:50:00+00:00,192.8298,5.4,13.05,47.84626,-54.09684
2018-05-29 04:00:00+00:00,186.2914,5.4,12.97,47.84626,-54.09684
2018-05-29 04:10:00+00:00,184.4198,5.4,12.89,47.84626,-54.09684
2018-05-29 04:20:00+00:00,181.4948,5.4,12.97,47.84626,-54.09684
2018-05-29 04:30:00+00:00,174.4915,5.4,12.97,47.84626,-54.09684
2018-05-29 04:40:00+00:00,170.8065,5.39,12.97,47.84626,-54.09684
2018-05-29 04:50:00+00:00,172.5698,5.39,13.05,47.84626,-54.09684
2018-05-29 05:00:00+00:00,173.1032,5.39,12.97,47.84626,-54.09684
2018-05-29 05:10:00+00:00,169.6348,5.39,12.89,47.84626,-54.09684
2018-05-29 05:20:00+00:00,169.3598,5.39,12.97,47.84626,-54.09684
2018-05-29 05:30:00+00:00,173.0248,5.39,12.97,47.84626,-54.09684
2018-05-29 05:40:00+00:00,174.1382,5.39,12.97,47.84626,-54.09684
2018-05-29 05:50:00+00:00,173.2365,5.39,12.97,47.84626,-54.09684
2018-05-29 06:00:00+00:00,176.7781,5.39,12.97,47.84626,-54.09684
2018-05-29 06:10:00+00:00,181.9431,5.38,12.89,47.84626,-54.09684
2018-05-29 06:20:00+00:00,182.9898,5.39,12.97,47.84626,-54.09684
2018-05-29 06:30:00+00:00,187.2115,5.39,12.97,47.84626,-54.09684
2018-05-29 06:40:00+00:00,195.0648,5.39,12.97,47.84626,-54.09684
2018-05-29 06:50:00+00:00,196.5281,5.4,12.97,47.84626,-54.09684
2018-05-29 07:00:00+00:00,198.1414,5.4,12.89,47.84626,-54.09684
2018-05-29 07:10:00+00:00,203.0531,5.4,12.81,47.84626,-54.09684
2018-05-29 07:20:00+00:00,208.7581,5.4,12.89,47.84626,-54.09684
2018-05-29 07:30:00+00:00,213.2598,5.4,12.89,47.84626,-54.09684
2018-05-29 07:40:00+00:00,219.2398,5.4,12.97,47.84626,-54.09684
2018-05-29 07:50:00+00:00,226.6164,5.42,12.97,47.84626,-54.09684
2018-05-29 08:00:00+00:00,230.3614,5.47,12.89,47.84626,-54.09684
2018-05-29 08:10:00+00:00,234.7081,5.5,12.81,47.84626,-54.09684
2018-05-29 08:20:00+00:00,241.0381,5.53,12.89,47.84626,-54.09684
2018-05-29 08:30:00+00:00,245.4747,5.58,12.97,47.84626,-54.09684
2018-05-29 08:40:00+00:00,249.1448,5.6,12.97,47.84626,-54.09684
2018-05-29 08:50:00+00:00,254.6747,5.6,12.97,47.84626,-54.09684
2018-05-29 09:00:00+00:00,263.0164,5.6,12.89,47.84626,-54.09684
2018-05-29 09:10:00+00:00,266.9797,5.59,12.89,47.84626,-54.09684
2018-05-29 09:20:00+00:00,271.1331,5.6,12.97,47.84626,-54.09684
2018-05-29 09:30:00+00:00,279.2697,5.6,13.05,47.84626,-54.09684
2018-05-29 09:40:00+00:00,290.133,5.6,13.13,47.84626,-54.09684
2018-05-29 09:50:00+00:00,293.8897,5.6,13.13,47.84626,-54.09684
2018-05-29 10:00:00+00:00,296.5747,5.6,13.13,47.84626,-54.09684
2018-05-29 10:10:00+00:00,305.2664,5.6,13.13,47.84626,-54.09684
2018-05-29 10:20:00+00:00,313.1813,5.6,13.21,47.84626,-54.09684
2018-05-29 10:30:00+00:00,315.1747,5.6,13.29,47.84626,-54.09684
2018-05-29 10:40:00+00:00,318.8663,5.6,13.37,47.84626,-54.09684
2018-05-29 10:50:00+00:00,326.283,5.63,13.44,47.84626,-54.09684
2018-05-29 11:00:00+00:00,325.853,5.65,13.44,47.84626,-54.09684
2018-05-29 11:10:00+00:00,324.0714,5.66,13.53,47.84626,-54.09684
2018-05-29 11:20:00+00:00,327.9263,5.66,13.68,47.84626,-54.09684
2018-05-29 11:30:00+00:00,329.7846,5.68,13.76,47.84626,-54.09684
2018-05-29 11:40:00+00:00,327.4529,5.69,13.84,47.84626,-54.09684
2018-05-29 11:50:00+00:00,326.383,5.69,13.92,47.84626,-54.09684
2018-05-29 12:00:00+00:00,329.323,5.69,14.0,47.84626,-54.09684
2018-05-29 12:10:00+00:00,330.8295,5.69,14.0,47.84626,-54.09684
2018-05-29 12:20:00+00:00,330.588,5.7,14.24,47.84626,-54.09684
2018-05-29 12:30:00+00:00,329.4763,5.7,15.27,47.84626,-54.09684
2018-05-29 12:40:00+00:00,327.223,5.7,15.83,47.84626,-54.09684
2018-05-29 12:50:00+00:00,322.4064,5.74,14.48,47.84626,-54.09684
2018-05-29 13:00:00+00:00,317.2598,5.77,14.32,47.84626,-54.09684
2018-05-29 13:10:00+00:00,316.0231,5.79,14.24,47.84626,-54.09684
2018-05-29 13:20:00+00:00,316.2081,5.79,14.24,47.84626,-54.09684
2018-05-29 13:30:00+00:00,313.2613,5.79,14.24,47.84626,-54.09684
2018-05-29 13:40:00+00:00,309.4697,5.79,14.24,47.84626,-54.09684
2018-05-29 13:50:00+00:00,306.6163,5.79,14.32,47.84626,-54.09684
2018-05-29 14:00:00+00:00,300.4446,5.79,14.24,47.84626,-54.09684
2018-05-29 14:10:00+00:00,293.108,5.8,14.16,47.84626,-54.09684
2018-05-29 14:20:00+00:00,282.8613,5.8,14.4,47.84626,-54.09684
2018-05-29 14:30:00+00:00,271.7731,5.8,14.32,47.84626,-54.09684
2018-05-29 14:40:00+00:00,262.8097,5.79,14.24,47.84626,-54.09684
2018-05-29 14:50:00+00:00,256.0731,5.77,14.24,47.84626,-54.09684
2018-05-29 15:00:00+00:00,244.5664,5.76,14.24,47.84626,-54.09684
2018-05-29 15:10:00+00:00,234.5648,5.75,14.16,47.84626,-54.09684
2018-05-29 15:20:00+00:00,229.7814,5.73,14.24,47.84626,-54.09684
2018-05-29 15:30:00+00:00,222.2547,5.73,14.48,47.84626,-54.09684
2018-05-29 15:40:00+00:00,212.3131,5.78,14.64,47.84626,-54.09684
2018-05-29 15:50:00+00:00,206.9881,5.8,14.48,47.84626,-54.09684
2018-05-29 16:00:00+00:00,204.6548,5.8,14.32,47.84626,-54.09684
2018-05-29 16:10:00+00:00,195.8831,5.86,14.32,47.84626,-54.09684
2018-05-29 16:20:00+00:00,185.8315,5.94,14.48,47.84626,-54.09684
2018-05-29 16:30:00+00:00,182.9131,6.0,14.48,47.84626,-54.09684
2018-05-29 16:40:00+00:00,184.0315,6.0,14.48,47.84626,-54.09684
2018-05-29 16:50:00+00:00,182.3148,6.03,14.48,47.84626,-54.09684
2018-05-29 17:00:00+00:00,180.4015,6.07,14.4,47.84626,-54.09684
2018-05-29 17:10:00+00:00,182.0898,6.1,14.32,47.84626,-54.09684
2018-05-29 17:20:00+00:00,183.3998,6.1,14.32,47.84626,-54.09684
2018-05-29 17:30:00+00:00,181.9415,6.1,14.24,47.84626,-54.09684
2018-05-29 17:40:00+00:00,183.6232,6.1,14.24,47.84626,-54.09684
2018-05-29 17:50:00+00:00,188.7581,6.1,14.24,47.84626,-54.09684
2018-05-29 18:00:00+00:00,193.5831,6.1,14.08,47.84626,-54.09684
2018-05-29 18:10:00+00:00,198.0714,6.1,13.92,47.84626,-54.09684
2018-05-29 18:20:00+00:00,203.0598,6.1,13.92,47.84626,-54.09684
2018-05-29 18:30:00+00:00,205.8164,6.09,13.92,47.84626,-54.09684
2018-05-29 18:40:00+00:00,210.1464,6.09,13.92,47.84626,-54.09684
2018-05-29 18:50:00+00:00,219.0032,6.0,13.92,47.84626,-54.09684
2018-05-29 19:00:00+00:00,225.4398,6.0,13.84,47.84626,-54.09684
2018-05-29 19:10:00+00:00,228.4964,6.05,13.68,47.84626,-54.09684
2018-05-29 19:20:00+00:00,233.2948,6.06,13.68,47.84626,-54.09684
2018-05-29 19:30:00+00:00,239.4998,6.07,13.68,47.84626,-54.09684
2018-05-29 19:40:00+00:00,241.6863,6.06,13.6,47.84626,-54.09684
2018-05-29 19:50:00+00:00,248.5832,6.0,13.68,47.84626,-54.09684
2018-05-29 20:00:00+00:00,255.1231,6.0,13.6,47.84626,-54.09684
2018-05-29 20:10:00+00:00,259.8048,6.0,13.44,47.84626,-54.09684
2018-05-29 20:20:00+00:00,263.0714,6.0,13.44,47.84626,-54.09684
2018-05-29 20:30:00+00:00,271.6531,6.0,13.44,47.84626,-54.09684
2018-05-29 20:40:00+00:00,278.5764,6.0,13.44,47.84626,-54.09684
2018-05-29 20:50:00+00:00,283.3597,6.0,13.44,47.84626,-54.09684
2018-05-29 21:00:00+00:00,287.0497,6.0,13.37,47.84626,-54.09684
2018-05-29 21:10:00+00:00,295.013,6.0,13.29,47.84626,-54.09684
2018-05-29 21:20:00+00:00,302.7364,6.04,13.29,47.84626,-54.09684
2018-05-29 21:30:00+00:00,310.0063,6.08,13.29,47.84626,-54.09684
2018-05-29 21:40:00+00:00,318.2414,6.1,13.29,47.84626,-54.09684
2018-05-29 21:50:00+00:00,326.403,6.11,13.21,47.84626,-54.09684
2018-05-29 22:00:00+00:00,332.7863,6.15,13.21,47.84626,-54.09684
2018-05-29 22:10:00+00:00,340.353,6.17,13.05,47.84626,-54.09684
2018-05-29 22:20:00+00:00,349.6013,6.1,13.13,47.84626,-54.09684
2018-05-29 22:30:00+00:00,354.1279,6.13,13.13,47.84626,-54.09684
2018-05-29 22:40:00+00:00,356.8763,6.15,13.13,47.84626,-54.09684
2018-05-29 22:50:00+00:00,362.4979,6.1,13.13,47.84626,-54.09684
2018-05-29 23:00:00+00:00,366.6295,6.07,13.05,47.84626,-54.09684
2018-05-29 23:10:00+00:00,368.3947,6.08,12.97,47.84626,-54.09684
2018-05-29 23:20:00+00:00,372.2896,6.07,13.05,47.84626,-54.09684
2018-05-29 23:30:00+00:00,377.4612,6.08,13.05,47.84626,-54.09684
2018-05-29 23:40:00+00:00,376.2563,6.09,13.05,47.84626,-54.09684
2018-05-29 23:50:00+00:00,374.9012,6.08,13.05,47.84626,-54.09684
